DELTA 1 DEB, 10707

Orbit data source: Space-Track

DELTA 1 DEB, 10707 is space debris in LEO originally from a launch on Thu, 29 Jul 1976 UTC launched from the Air Force Western Test Range (AFWTR). Debris objects in space refer to the collection of defunct objects orbiting the Earth. Examples of debris include non-operational satellites, rocket bodies, and fragments generated from explosions, collisions, or faulty payload assembly.

Loading next visibility...
Identifier
10707, 1976-077AC
Orbit
LEO
Country
Flag of USUS
Related business
Manufacturer
Unknown
Mission
Spacecraft
Bus & Motor
Unknown
Mass
Unknown
Launch date (UTC)
1976-07-29 (50 years ago)
Launch vehicle
Unknown
Launch site
Air Force Western Test Range (AFWTR)
Object type
Payload
Rocket body
Debris
Shape & HBR
Unknown shape, 0.1 m
Radar Cross Section
Medium (>0.1 m² and <1 m²)

Expand to show TLE details & history
Last TLE update: 21 hours ago

TLE from 21 hours ago
0 DELTA 1 DEB
1 10707U 76077AC  26170.98996315 -.00000221  00000-0 -20646-2 0  9995
2 10707 102.1918 181.0510 0255420 299.5024 117.3297 11.98491659152690
Epoch: 2026-06-19T23:45Z
TLE epoch observation values (Epoch: 2026-06-19T23:45:32.816Z)
Latitude
57.36463°
Longitude
-103.16725°
Altitude
1,795.699 km
Speed
6.947 km/s
True Right ascension
10h 45m 43s
True Declination
57° 13' 41"
Sunlit
Object was in daylight at epoch
Visualization orbit readout
Latitude
Unknown
Longitude
Unknown
Altitude
Unknown
Speed
Unknown
Apparent Right ascension
Unknown
Apparent Declination
Unknown
Sunlit
N/A
Visualization observer readout
Local Sidereal Time
07:37:52
Azimuth
Unknown
Elevation
Unknown
Doppler factor
Unknown
Orbital elements
Apogee altitude
1,891.214 km
Perigee altitude
1,479.304 km
Semi-major axis
8,063.396 km
Eccentricity
0.02554
Inclination
102.1918°
RAAN
181.051°
Arg. of periapsis
299.5024°
True anomaly
119.89146°
Mean anomaly
117.3297°
Eccentric anomaly
118.61441°
Mean motion
2.99755 °/min
Orbital period
120.1 mins
BSTAR
-0.0020646
Loading maneuver chart data...
Computing Atmospheric mass density...
Loading historical data...
Loading historical data...
Loading historical data...
Loading historical data...
Loading historical data...
Loading historical data...
Loading historical data...

Documentation

Showing up to 5 results
|